EW5989 Weather Reports


time (UTC)temp
C
wind
direction
speed
KPH
gust
KPH
rain 1hr
cm
rain 24hr
cm
rain mn
cm
humidity
%
barometer
mb
20260507160010 16 296 0.0 4.8 0.00 0.00 0.00 85 1016.2
20260507154507 16 142 0.0 3.2 0.00 0.00 0.00 85 1016.3
20260507153004 15 120 0.0 1.6 0.00 0.00 0.00 90 1016.2
20260507151500 13 286 0.0 4.8 0.00 0.00 0.00 91 1016.1
20260507150101 13 284 0.0 4.8 0.00 0.00 0.00 94 1016.1
20260507144556 13 117 0.0 1.6 0.00 0.00 0.00 94 1016.1
20260507143055 12 129 0.0 1.6 0.00 0.00 0.00 95 1016.0
20260507141556 12 346 0.0 3.2 0.00 0.00 0.00 94 1015.7
20260507140107 12 101 0.0 3.2 0.00 0.00 0.00 95 1015.8
20260507134552 12 25 0.0 1.6 0.00 0.00 0.00 95 1015.6
20260507133052 12 301 0.0 3.2 0.00 0.00 0.00 95 1015.6
20260507131551 12 168 0.0 0.0 0.00 0.00 0.00 95 1015.6
20260507130048 -17 0.0 0.0 0.00 0.00 0.00 1015.6
20260507124544 -17 0.0 0.0 0.00 0.00 0.00 1015.4
20260507123039 -17 0.0 0.0 0.00 0.00 0.00 1015.3
20260507121537 11 90 0.0 0.0 0.00 0.00 0.00 90 1015.3
20260507120036 10 91 0.0 0.0 0.00 0.00 0.00 90 1015.2
20260507114535 10 91 0.0 0.0 0.00 0.00 0.00 90 1015.3
20260507113039 11 91 0.0 0.0 0.00 0.00 0.00 90 1015.3
20260507111530 11 90 0.0 0.0 0.00 0.00 0.00 90 1015.3
20260507110029 11 91 0.0 0.0 0.00 0.00 0.00 90 1015.4
20260507104528 11 91 0.0 0.0 0.00 0.00 0.00 90 1015.4
20260507103026 11 91 0.0 0.0 0.00 0.00 0.00 90 1015.5
20260507101537 11 90 0.0 0.0 0.00 0.00 0.00 89 1015.6
20260507100030 11 91 0.0 0.0 0.00 0.00 0.00 89 1015.7
20260507094521 11 91 0.0 0.0 0.00 0.00 0.00 89 1015.8
20260507093025 11 91 0.0 0.0 0.00 0.00 0.00 89 1015.9
20260507091536 11 90 0.0 0.0 0.00 0.00 0.00 89 1016.0
20260507090015 11 91 0.0 0.0 0.00 0.00 0.00 89 1016.2
20260507084511 12 91 0.0 0.0 0.00 0.00 0.00 89 1016.2
20260507083012 12 90 0.0 0.0 0.00 0.00 0.00 89 1016.4
20260507081507 12 91 0.0 0.0 0.00 0.00 0.00 89 1016.5
20260507080007 12 90 0.0 0.0 0.00 0.00 0.00 89 1016.6
20260507074508 12 91 0.0 0.0 0.00 0.00 0.00 89 1016.7
20260507073004 12 91 0.0 1.6 0.00 0.00 0.00 89 1016.6
20260507071504 12 91 0.0 0.0 0.00 0.00 0.00 88 1016.7
20260507070139 12 91 0.0 0.0 0.00 0.00 0.00 88 1016.8
20260507064600 13 91 0.0 0.0 0.00 0.00 0.00 88 1016.9
20260507063102 13 91 0.0 0.0 0.00 0.00 0.00 88 1016.9
20260507061558 13 91 0.0 0.0 0.00 0.00 0.00 88 1016.9
20260507060057 13 91 0.0 0.0 0.00 0.00 0.00 88 1016.9
20260507054606 13 90 0.0 1.6 0.00 0.00 0.00 87 1016.9
20260507053056 13 91 0.0 0.0 0.00 0.00 0.00 87 1016.8
20260507051555 13 91 0.0 1.6 0.00 0.00 0.00 87 1016.9
20260507050056 13 90 0.0 1.6 0.00 0.00 0.00 87 1016.8
20260507044556 14 94 0.0 3.2 0.00 0.00 0.00 86 1016.8
20260507043053 14 95 0.0 3.2 0.00 0.00 0.00 86 1016.7
20260507041552 14 76 0.0 3.2 0.00 0.00 0.00 86 1016.7
20260507040054 14 96 0.0 3.2 0.00 0.00 0.00 85 1016.6
20260507034551 15 56 0.0 3.2 0.00 0.00 0.00 85 1016.4
20260507033051 15 79 0.0 4.8 0.00 0.00 0.00 83 1016.3
20260507031550 15 98 0.0 4.8 0.00 0.00 0.00 82 1016.2
20260507030057 15 60 0.0 4.8 0.00 0.00 0.00 80 1016.1
20260507024548 16 93 0.0 3.2 0.00 0.00 0.00 79 1015.9
20260507023048 16 100 0.0 6.4 0.00 0.00 0.00 77 1015.8
20260507021606 17 88 1.6 8.0 0.00 0.00 0.00 75 1015.7
20260507020053 18 68 1.6 9.7 0.00 0.00 0.00 74 1015.6
20260507014607 18 58 1.6 8.0 0.00 0.00 0.00 73 1015.6
20260507013052 18 84 1.6 9.7 0.00 0.00 0.00 73 1015.6
20260507011546 18 86 4.8 12.9 0.00 0.00 0.00 73 1015.5
20260507010059 19 68 3.2 12.9 0.00 0.00 0.00 70 1015.5
20260507004547 20 77 1.6 12.9 0.00 0.00 0.00 69 1015.4
20260507003043 20 85 0.0 9.7 0.00 0.00 0.00 68 1015.4
20260507001542 20 99 3.2 11.3 0.00 0.00 0.00 66 1015.3
20260507000044 20 89 1.6 12.9 0.00 0.00 0.00 67 1015.2
20260506234540 20 89 6.4 14.5 0.00 0.00 0.00 66 1015.2
20260506233039 20 107 1.6 12.9 0.00 0.00 0.00 66 1015.1
20260506231537 20 61 6.4 14.5 0.00 0.00 0.00 66 1015.3
20260506230037 20 126 6.4 19.3 0.00 0.00 0.00 67 1015.4
20260506224537 20 72 6.4 16.1 0.00 0.00 0.00 68 1015.4
20260506223036 20 61 4.8 14.5 0.00 0.00 0.00 66 1015.5
20260506221532 20 148 6.4 14.5 0.00 0.00 0.00 67 1015.6
20260506220036 21 319 8.0 17.7 0.00 0.00 0.00 65 1015.6
20260506214528 20 89 6.4 14.5 0.00 0.00 0.00 66 1015.7
20260506213027 20 95 6.4 16.1 0.00 0.00 0.00 67 1015.8
20260506211526 20 50 8.0 16.1 0.00 0.00 0.00 66 1015.9
20260506210027 20 143 6.4 17.7 0.00 0.00 0.00 66 1016.0
20260506204525 20 96 9.7 17.7 0.00 0.00 0.00 65 1016.0
20260506203024 20 128 8.0 17.7 0.00 0.00 0.00 66 1016.1
20260506201537 21 96 6.4 14.5 0.00 0.00 0.00 63 1016.2
20260506200026 21 50 4.8 16.1 0.00 0.00 0.00 64 1016.4
20260506194517 21 76 6.4 17.7 0.00 0.00 0.00 63 1016.6
20260506193016 21 56 4.8 11.3 0.00 0.00 0.00 64 1016.7
20260506191513 21 75 4.8 12.9 0.00 0.00 0.00 63 1016.8
20260506190012 21 79 3.2 12.9 0.00 0.00 0.00 63 1017.1
20260506184509 20 87 1.6 16.1 0.00 0.00 0.00 63 1017.1
20260506183008 20 105 0.0 8.0 0.00 0.00 0.00 63 1017.3
20260506181505 20 255 0.0 9.7 0.00 0.00 0.00 65 1017.3
20260506180005 20 96 3.2 9.7 0.00 0.00 0.00 63 1017.5
20260506174501 20 101 1.6 8.0 0.00 0.00 0.00 63 1017.6
20260506173120 19 118 0.0 1.6 0.00 0.00 0.00 65 1017.8
20260506171558 18 99 0.0 8.0 0.00 0.00 0.00 67 1017.9
20260506170054 17 113 1.6 6.4 0.00 0.00 0.00 67 1017.9
20260506164549 17 111 0.0 6.4 0.00 0.00 0.00 71 1018.0
20260506163100 16 111 1.6 6.4 0.00 0.00 0.00 75 1018.0
20260506161544 15 120 0.0 6.4 0.00 0.00 0.00 79 1018.0